Year,Month,Day,Hour,Minute,Value (Times are PST for insolation in W/m^2)
2010,05,24,00,03,0.00
2010,05,24,00,04,0.00
2010,05,24,00,05,0.00
2010,05,24,00,06,0.00
2010,05,24,00,07,0.00
2010,05,24,00,08,0.00
2010,05,24,00,09,0.00
2010,05,24,00,10,0.00
2010,05,24,00,11,0.00
2010,05,24,00,12,0.00
2010,05,24,00,13,0.00
2010,05,24,00,14,0.00
2010,05,24,00,15,0.00
2010,05,24,00,16,0.00
2010,05,24,00,17,0.00
2010,05,24,00,18,0.00
2010,05,24,00,19,0.00
2010,05,24,00,20,0.00
2010,05,24,00,21,0.00
2010,05,24,00,22,0.00
2010,05,24,00,23,0.00
2010,05,24,00,24,0.00
2010,05,24,00,25,0.00
2010,05,24,00,26,0.00
2010,05,24,00,27,0.00
2010,05,24,00,28,0.00
2010,05,24,00,29,0.00
2010,05,24,00,30,0.00
2010,05,24,00,31,0.00
2010,05,24,00,32,0.00
2010,05,24,00,33,0.00
2010,05,24,00,34,0.00
2010,05,24,00,35,0.00
2010,05,24,00,36,0.00
2010,05,24,00,37,0.00
2010,05,24,00,38,0.00
2010,05,24,00,39,0.00
2010,05,24,00,40,0.00
2010,05,24,00,41,0.00
2010,05,24,00,42,0.00
2010,05,24,00,43,0.00
2010,05,24,00,44,0.00
2010,05,24,00,45,0.00
2010,05,24,00,46,0.00
2010,05,24,00,47,0.00
2010,05,24,00,48,0.00
2010,05,24,00,49,0.00
2010,05,24,00,50,0.00
2010,05,24,00,51,0.00
2010,05,24,00,52,0.00
2010,05,24,00,53,0.00
2010,05,24,00,54,0.00
2010,05,24,00,55,0.00
2010,05,24,00,56,0.00
2010,05,24,00,57,0.00
2010,05,24,00,58,0.00
2010,05,24,00,59,0.00
2010,05,24,01,00,0.00
2010,05,24,01,01,0.00
2010,05,24,01,02,0.00
2010,05,24,01,03,0.00
2010,05,24,01,04,0.00
2010,05,24,01,05,0.00
2010,05,24,01,06,0.00
2010,05,24,01,07,0.00
2010,05,24,01,08,0.00
2010,05,24,01,09,0.00
2010,05,24,01,10,0.00
2010,05,24,01,11,0.00
2010,05,24,01,12,0.00
2010,05,24,01,13,0.00
2010,05,24,01,14,0.00
2010,05,24,01,15,0.00
2010,05,24,01,16,0.00
2010,05,24,01,17,0.00
2010,05,24,01,18,0.00
2010,05,24,01,19,0.00
2010,05,24,01,20,0.00
2010,05,24,01,21,0.00
2010,05,24,01,22,0.00
2010,05,24,01,23,0.00
2010,05,24,01,24,0.00
2010,05,24,01,25,0.00
2010,05,24,01,26,0.00
2010,05,24,01,27,0.00
2010,05,24,01,28,0.00
2010,05,24,01,29,0.00
2010,05,24,01,30,0.00
2010,05,24,01,31,0.00
2010,05,24,01,32,0.00
2010,05,24,01,33,0.00
2010,05,24,01,34,0.00
2010,05,24,01,35,0.00
2010,05,24,01,36,0.00
2010,05,24,01,37,0.00
2010,05,24,01,38,0.00
2010,05,24,01,39,0.00
2010,05,24,01,40,0.00
2010,05,24,01,41,0.00
2010,05,24,01,42,0.00
2010,05,24,01,43,0.00
2010,05,24,01,44,0.00
2010,05,24,01,45,0.00
2010,05,24,01,46,0.00
2010,05,24,01,47,0.00
2010,05,24,01,48,0.00
2010,05,24,01,49,0.00
2010,05,24,01,50,0.00
2010,05,24,01,51,0.00
2010,05,24,01,52,0.00
2010,05,24,01,53,0.00
2010,05,24,01,54,0.00
2010,05,24,01,55,0.00
2010,05,24,01,56,0.00
2010,05,24,01,57,0.00
2010,05,24,01,58,0.00
2010,05,24,01,59,0.00
2010,05,24,02,00,0.00
2010,05,24,02,01,0.00
2010,05,24,02,02,0.00
2010,05,24,02,03,0.00
2010,05,24,02,04,0.00
2010,05,24,02,05,0.00
2010,05,24,02,06,0.00
2010,05,24,02,07,0.00
2010,05,24,02,08,0.00
2010,05,24,02,09,0.00
2010,05,24,02,10,0.00
2010,05,24,02,11,0.00
2010,05,24,02,12,0.00
2010,05,24,02,13,0.00
2010,05,24,02,14,0.00
2010,05,24,02,15,0.00
2010,05,24,02,16,0.00
2010,05,24,02,17,0.00
2010,05,24,02,18,0.00
2010,05,24,02,19,0.00
2010,05,24,02,20,0.00
2010,05,24,02,21,0.00
2010,05,24,02,22,0.00
2010,05,24,02,23,0.00
2010,05,24,02,24,0.00
2010,05,24,02,25,0.00
2010,05,24,02,26,0.00
2010,05,24,02,27,0.00
2010,05,24,02,28,0.00
2010,05,24,02,29,0.00
2010,05,24,02,30,0.00
2010,05,24,02,31,0.00
2010,05,24,02,32,0.00
2010,05,24,02,33,0.00
2010,05,24,02,34,0.00
2010,05,24,02,35,0.00
2010,05,24,02,36,0.00
2010,05,24,02,37,0.00
2010,05,24,02,38,0.00
2010,05,24,02,39,0.00
2010,05,24,02,40,0.00
2010,05,24,02,41,0.00
2010,05,24,02,42,0.00
2010,05,24,02,43,0.00
2010,05,24,02,44,0.00
2010,05,24,02,45,0.00
2010,05,24,02,46,0.00
2010,05,24,02,47,0.00
2010,05,24,02,48,0.00
2010,05,24,02,49,0.00
2010,05,24,02,50,0.00
2010,05,24,02,51,0.00
2010,05,24,02,52,0.00
2010,05,24,02,53,0.00
2010,05,24,02,54,0.00
2010,05,24,02,55,0.00
2010,05,24,02,56,0.00
2010,05,24,02,57,0.00
2010,05,24,02,58,0.00
2010,05,24,02,59,0.00
2010,05,24,03,00,0.00
2010,05,24,03,01,0.00
2010,05,24,03,02,0.00
2010,05,24,03,03,0.00
2010,05,24,03,04,0.00
2010,05,24,03,05,0.00
2010,05,24,03,06,0.00
2010,05,24,03,07,0.00
2010,05,24,03,08,0.00
2010,05,24,03,09,0.00
2010,05,24,03,10,0.00
2010,05,24,03,11,0.00
2010,05,24,03,12,0.00
2010,05,24,03,13,0.00
2010,05,24,03,14,0.00
2010,05,24,03,15,0.00
2010,05,24,03,16,0.00
2010,05,24,03,17,0.00
2010,05,24,03,18,0.00
2010,05,24,03,19,0.00
2010,05,24,03,20,0.00
2010,05,24,03,21,0.00
2010,05,24,03,22,0.00
2010,05,24,03,23,0.00
2010,05,24,03,24,0.00
2010,05,24,03,25,0.00
2010,05,24,03,26,0.00
2010,05,24,03,27,0.00
2010,05,24,03,28,0.00
2010,05,24,03,29,0.00
2010,05,24,03,30,0.00
2010,05,24,03,31,0.00
2010,05,24,03,32,0.00
2010,05,24,03,33,0.00
2010,05,24,03,34,0.00
2010,05,24,03,35,0.00
2010,05,24,03,36,0.00
2010,05,24,03,37,0.00
2010,05,24,03,38,0.00
2010,05,24,03,39,0.00
2010,05,24,03,40,0.00
2010,05,24,03,41,0.00
2010,05,24,03,42,0.00
2010,05,24,03,43,0.00
2010,05,24,03,44,0.00
2010,05,24,03,45,0.00
2010,05,24,03,46,0.00
2010,05,24,03,47,0.00
2010,05,24,03,48,0.00
2010,05,24,03,49,0.00
2010,05,24,03,50,0.00
2010,05,24,03,51,0.00
2010,05,24,03,52,0.00
2010,05,24,03,53,0.00
2010,05,24,03,54,0.00
2010,05,24,03,55,0.00
2010,05,24,03,56,0.00
2010,05,24,03,57,0.00
2010,05,24,03,58,0.00
2010,05,24,03,59,0.00
2010,05,24,04,00,0.00
2010,05,24,04,01,0.00
2010,05,24,04,02,0.00
2010,05,24,04,03,0.00
2010,05,24,04,04,0.00
2010,05,24,04,05,0.00
2010,05,24,04,06,0.00
2010,05,24,04,07,0.00
2010,05,24,04,08,0.00
2010,05,24,04,09,0.00
2010,05,24,04,10,0.00
2010,05,24,04,11,0.00
2010,05,24,04,12,0.00
2010,05,24,04,13,0.00
2010,05,24,04,14,0.00
2010,05,24,04,15,0.00
2010,05,24,04,16,0.00
2010,05,24,04,17,0.00
2010,05,24,04,18,0.00
2010,05,24,04,19,0.00
2010,05,24,04,20,0.00
2010,05,24,04,21,0.00
2010,05,24,04,22,0.00
2010,05,24,04,23,0.00
2010,05,24,04,24,0.00
2010,05,24,04,25,0.00
2010,05,24,04,26,0.00
2010,05,24,04,27,0.00
2010,05,24,04,28,0.00
2010,05,24,04,29,0.00
2010,05,24,04,30,0.00
2010,05,24,04,31,0.00
2010,05,24,04,32,0.00
2010,05,24,04,33,0.00
2010,05,24,04,34,0.00
2010,05,24,04,35,0.00
2010,05,24,04,36,0.00
2010,05,24,04,37,0.00
2010,05,24,04,38,0.00
2010,05,24,04,39,0.00
2010,05,24,04,40,0.00
2010,05,24,04,41,0.00
2010,05,24,04,42,0.00
2010,05,24,04,43,0.00
2010,05,24,04,44,0.00
2010,05,24,04,45,0.00
2010,05,24,04,46,0.00
2010,05,24,04,47,0.00
2010,05,24,04,48,0.00
2010,05,24,04,49,0.00
2010,05,24,04,50,0.00
2010,05,24,04,51,0.00
2010,05,24,04,52,0.00
2010,05,24,04,53,0.00
2010,05,24,04,54,0.00
2010,05,24,04,55,0.00
2010,05,24,04,56,0.00
2010,05,24,04,57,0.00
2010,05,24,04,58,0.00
2010,05,24,04,59,0.00
2010,05,24,05,00,0.00
2010,05,24,05,01,0.00
2010,05,24,05,02,0.00
2010,05,24,05,03,0.00
2010,05,24,05,04,0.00
2010,05,24,05,05,0.00
2010,05,24,05,06,0.00
2010,05,24,05,07,0.00
2010,05,24,05,08,0.00
2010,05,24,05,09,0.00
2010,05,24,05,10,0.00
2010,05,24,05,11,0.00
2010,05,24,05,12,0.00
2010,05,24,05,13,0.00
2010,05,24,05,14,0.00
2010,05,24,05,15,0.00
2010,05,24,05,16,0.00
2010,05,24,05,17,0.00
2010,05,24,05,18,0.00
2010,05,24,05,19,0.00
2010,05,24,05,20,0.00
2010,05,24,05,21,0.00
2010,05,24,05,22,0.00
2010,05,24,05,23,0.00
2010,05,24,05,24,0.00
2010,05,24,05,25,0.00
2010,05,24,05,26,0.00
2010,05,24,05,27,0.00
2010,05,24,05,28,0.00
2010,05,24,05,29,0.00
2010,05,24,05,30,0.00
2010,05,24,05,31,0.00
2010,05,24,05,32,0.00
2010,05,24,05,33,5.00
2010,05,24,05,34,5.00
2010,05,24,05,35,5.00
2010,05,24,05,36,5.00
2010,05,24,05,37,5.00
2010,05,24,05,38,5.00
2010,05,24,05,39,5.00
2010,05,24,05,40,5.00
2010,05,24,05,41,5.00
2010,05,24,05,42,5.00
2010,05,24,05,43,5.00
2010,05,24,05,44,5.00
2010,05,24,05,45,5.00
2010,05,24,05,46,5.00
2010,05,24,05,47,5.00
2010,05,24,05,48,23.00
2010,05,24,05,49,23.00
2010,05,24,05,50,23.00
2010,05,24,05,51,23.00
2010,05,24,05,52,23.00
2010,05,24,05,53,23.00
2010,05,24,05,54,23.00
2010,05,24,05,55,23.00
2010,05,24,05,56,23.00
2010,05,24,05,57,23.00
2010,05,24,05,58,23.00
2010,05,24,05,59,23.00
2010,05,24,06,00,23.00
2010,05,24,06,01,23.00
2010,05,24,06,02,23.00
2010,05,24,06,03,47.00
2010,05,24,06,04,47.00
2010,05,24,06,05,47.00
2010,05,24,06,06,47.00
2010,05,24,06,07,47.00
2010,05,24,06,08,47.00
2010,05,24,06,09,47.00
2010,05,24,06,10,47.00
2010,05,24,06,11,47.00
2010,05,24,06,12,47.00
2010,05,24,06,13,47.00
2010,05,24,06,14,47.00
2010,05,24,06,15,47.00
2010,05,24,06,16,47.00
2010,05,24,06,17,47.00
2010,05,24,06,18,54.00
2010,05,24,06,19,54.00
2010,05,24,06,20,54.00
2010,05,24,06,21,54.00
2010,05,24,06,22,54.00
2010,05,24,06,23,54.00
2010,05,24,06,24,54.00
2010,05,24,06,25,54.00
2010,05,24,06,26,54.00
2010,05,24,06,27,54.00
2010,05,24,06,28,54.00
2010,05,24,06,29,54.00
2010,05,24,06,30,54.00
2010,05,24,06,31,54.00
2010,05,24,06,32,54.00
2010,05,24,06,33,60.00
2010,05,24,06,34,60.00
2010,05,24,06,35,60.00
2010,05,24,06,36,60.00
2010,05,24,06,37,60.00
2010,05,24,06,38,60.00
2010,05,24,06,39,60.00
2010,05,24,06,40,60.00
2010,05,24,06,41,60.00
2010,05,24,06,42,60.00
2010,05,24,06,43,60.00
2010,05,24,06,44,60.00
2010,05,24,06,45,60.00
2010,05,24,06,46,60.00
2010,05,24,06,47,60.00
2010,05,24,06,48,65.00
2010,05,24,06,49,65.00
2010,05,24,06,50,65.00
2010,05,24,06,51,65.00
2010,05,24,06,52,65.00
2010,05,24,06,53,65.00
2010,05,24,06,54,65.00
2010,05,24,06,55,65.00
2010,05,24,06,56,65.00
2010,05,24,06,57,65.00
2010,05,24,06,58,65.00
2010,05,24,06,59,65.00
2010,05,24,07,00,65.00
2010,05,24,07,01,65.00
2010,05,24,07,02,65.00
2010,05,24,07,03,160.00
2010,05,24,07,04,160.00
2010,05,24,07,05,160.00
2010,05,24,07,06,160.00
2010,05,24,07,07,160.00
2010,05,24,07,08,160.00
2010,05,24,07,09,160.00
2010,05,24,07,10,160.00
2010,05,24,07,11,160.00
2010,05,24,07,12,160.00
2010,05,24,07,13,160.00
2010,05,24,07,14,160.00
2010,05,24,07,15,160.00
2010,05,24,07,16,160.00
2010,05,24,07,17,160.00
2010,05,24,07,18,185.00
2010,05,24,07,19,185.00
2010,05,24,07,20,185.00
2010,05,24,07,21,185.00
2010,05,24,07,22,185.00
2010,05,24,07,23,185.00
2010,05,24,07,24,185.00
2010,05,24,07,25,185.00
2010,05,24,07,26,185.00
2010,05,24,07,27,185.00
2010,05,24,07,28,185.00
2010,05,24,07,29,185.00
2010,05,24,07,30,185.00
2010,05,24,07,31,185.00
2010,05,24,07,32,185.00
2010,05,24,07,33,185.00
2010,05,24,07,34,306.00
2010,05,24,07,35,306.00
2010,05,24,07,36,306.00
2010,05,24,07,37,306.00
2010,05,24,07,38,306.00
2010,05,24,07,39,306.00
2010,05,24,07,40,306.00
2010,05,24,07,41,306.00
2010,05,24,07,42,306.00
2010,05,24,07,43,306.00
2010,05,24,07,44,306.00
2010,05,24,07,45,306.00
2010,05,24,07,46,306.00
2010,05,24,07,47,306.00
2010,05,24,07,48,278.00
2010,05,24,07,49,278.00
2010,05,24,07,50,278.00
2010,05,24,07,51,278.00
2010,05,24,07,52,278.00
2010,05,24,07,53,278.00
2010,05,24,07,54,278.00
2010,05,24,07,55,278.00
2010,05,24,07,56,278.00
2010,05,24,07,57,278.00
2010,05,24,07,58,278.00
2010,05,24,07,59,278.00
2010,05,24,08,00,278.00
2010,05,24,08,01,278.00
2010,05,24,08,02,278.00
2010,05,24,08,03,374.00
2010,05,24,08,04,374.00
2010,05,24,08,05,374.00
2010,05,24,08,06,374.00
2010,05,24,08,07,374.00
2010,05,24,08,08,374.00
2010,05,24,08,09,374.00
2010,05,24,08,10,374.00
2010,05,24,08,11,374.00
2010,05,24,08,12,374.00
2010,05,24,08,13,374.00
2010,05,24,08,14,374.00
2010,05,24,08,15,374.00
2010,05,24,08,16,374.00
2010,05,24,08,17,374.00
2010,05,24,08,18,330.00
2010,05,24,08,19,330.00
2010,05,24,08,20,330.00
2010,05,24,08,21,330.00
2010,05,24,08,22,330.00
2010,05,24,08,23,330.00
2010,05,24,08,24,330.00
2010,05,24,08,25,330.00
2010,05,24,08,26,330.00
2010,05,24,08,27,330.00
2010,05,24,08,28,330.00
2010,05,24,08,29,330.00
2010,05,24,08,30,330.00
2010,05,24,08,31,330.00
2010,05,24,08,32,330.00
2010,05,24,08,33,279.00
2010,05,24,08,34,279.00
2010,05,24,08,35,279.00
2010,05,24,08,36,279.00
2010,05,24,08,37,279.00
2010,05,24,08,38,279.00
2010,05,24,08,39,279.00
2010,05,24,08,40,279.00
2010,05,24,08,41,279.00
2010,05,24,08,42,279.00
2010,05,24,08,43,279.00
2010,05,24,08,44,279.00
2010,05,24,08,45,279.00
2010,05,24,08,46,279.00
2010,05,24,08,47,279.00
2010,05,24,08,48,279.00
2010,05,24,08,49,589.00
2010,05,24,08,50,589.00
2010,05,24,08,51,589.00
2010,05,24,08,52,589.00
2010,05,24,08,53,589.00
2010,05,24,08,54,589.00
2010,05,24,08,55,589.00
2010,05,24,08,56,589.00
2010,05,24,08,57,589.00
2010,05,24,08,58,589.00
2010,05,24,08,59,589.00
2010,05,24,09,00,589.00
2010,05,24,09,01,589.00
2010,05,24,09,02,589.00
2010,05,24,09,03,462.00
2010,05,24,09,04,462.00
2010,05,24,09,05,462.00
2010,05,24,09,06,462.00
2010,05,24,09,07,462.00
2010,05,24,09,08,462.00
2010,05,24,09,09,462.00
2010,05,24,09,10,462.00
2010,05,24,09,11,462.00
2010,05,24,09,12,462.00
2010,05,24,09,13,462.00
2010,05,24,09,14,462.00
2010,05,24,09,15,462.00
2010,05,24,09,16,462.00
2010,05,24,09,17,462.00
2010,05,24,09,18,540.00
2010,05,24,09,19,540.00
2010,05,24,09,20,540.00
2010,05,24,09,21,540.00
2010,05,24,09,22,540.00
2010,05,24,09,23,540.00
2010,05,24,09,24,540.00
2010,05,24,09,25,540.00
2010,05,24,09,26,540.00
2010,05,24,09,27,540.00
2010,05,24,09,28,540.00
2010,05,24,09,29,540.00
2010,05,24,09,30,540.00
2010,05,24,09,31,540.00
2010,05,24,09,32,540.00
2010,05,24,09,33,636.00
2010,05,24,09,34,636.00
2010,05,24,09,35,636.00
2010,05,24,09,36,636.00
2010,05,24,09,37,636.00
2010,05,24,09,38,636.00
2010,05,24,09,39,636.00
2010,05,24,09,40,636.00
2010,05,24,09,41,636.00
2010,05,24,09,42,636.00
2010,05,24,09,43,636.00
2010,05,24,09,44,636.00
2010,05,24,09,45,636.00
2010,05,24,09,46,636.00
2010,05,24,09,47,636.00
2010,05,24,09,48,448.00
2010,05,24,09,49,448.00
2010,05,24,09,50,448.00
2010,05,24,09,51,448.00
2010,05,24,09,52,448.00
2010,05,24,09,53,448.00
2010,05,24,09,54,448.00
2010,05,24,09,55,448.00
2010,05,24,09,56,448.00
2010,05,24,09,57,448.00
2010,05,24,09,58,448.00
2010,05,24,09,59,448.00
2010,05,24,10,00,448.00
2010,05,24,10,01,448.00
2010,05,24,10,02,448.00
2010,05,24,10,03,647.00
2010,05,24,10,04,647.00
2010,05,24,10,05,647.00
2010,05,24,10,06,647.00
2010,05,24,10,07,647.00
2010,05,24,10,08,647.00
2010,05,24,10,09,647.00
2010,05,24,10,10,647.00
2010,05,24,10,11,647.00
2010,05,24,10,12,647.00
2010,05,24,10,13,647.00
2010,05,24,10,14,647.00
2010,05,24,10,15,647.00
2010,05,24,10,16,647.00
2010,05,24,10,17,647.00
2010,05,24,10,18,670.00
2010,05,24,10,19,670.00
2010,05,24,10,20,670.00
2010,05,24,10,21,670.00
2010,05,24,10,22,670.00
2010,05,24,10,23,670.00
2010,05,24,10,24,670.00
2010,05,24,10,25,670.00
2010,05,24,10,26,670.00
2010,05,24,10,27,670.00
2010,05,24,10,28,670.00
2010,05,24,10,29,670.00
2010,05,24,10,30,670.00
2010,05,24,10,31,670.00
2010,05,24,10,32,670.00
2010,05,24,10,33,693.00
2010,05,24,10,34,693.00
2010,05,24,10,35,693.00
2010,05,24,10,36,693.00
2010,05,24,10,37,693.00
2010,05,24,10,38,693.00
2010,05,24,10,39,693.00
2010,05,24,10,40,693.00
2010,05,24,10,41,693.00
2010,05,24,10,42,693.00
2010,05,24,10,43,693.00
2010,05,24,10,44,693.00
2010,05,24,10,45,693.00
2010,05,24,10,46,693.00
2010,05,24,10,47,693.00
2010,05,24,10,48,693.00
2010,05,24,10,49,673.00
2010,05,24,10,50,673.00
2010,05,24,10,51,673.00
2010,05,24,10,52,673.00
2010,05,24,10,53,673.00
2010,05,24,10,54,673.00
2010,05,24,10,55,673.00
2010,05,24,10,56,673.00
2010,05,24,10,57,673.00
2010,05,24,10,58,673.00
2010,05,24,10,59,673.00
2010,05,24,11,00,673.00
2010,05,24,11,01,673.00
2010,05,24,11,02,673.00
2010,05,24,11,03,782.00
2010,05,24,11,04,782.00
2010,05,24,11,05,782.00
2010,05,24,11,06,782.00
2010,05,24,11,07,782.00
2010,05,24,11,08,782.00
2010,05,24,11,09,782.00
2010,05,24,11,10,782.00
2010,05,24,11,11,782.00
2010,05,24,11,12,782.00
2010,05,24,11,13,782.00
2010,05,24,11,14,782.00
2010,05,24,11,15,782.00
2010,05,24,11,16,782.00
2010,05,24,11,17,782.00
2010,05,24,11,18,842.00
2010,05,24,11,19,842.00
2010,05,24,11,20,842.00
2010,05,24,11,21,842.00
2010,05,24,11,22,842.00
2010,05,24,11,23,842.00
2010,05,24,11,24,842.00
2010,05,24,11,25,842.00
2010,05,24,11,26,842.00
2010,05,24,11,27,842.00
2010,05,24,11,28,842.00
2010,05,24,11,29,842.00
2010,05,24,11,30,842.00
2010,05,24,11,31,842.00
2010,05,24,11,32,842.00
2010,05,24,11,33,861.00
2010,05,24,11,34,861.00
2010,05,24,11,35,861.00
2010,05,24,11,36,861.00
2010,05,24,11,37,861.00
2010,05,24,11,38,861.00
2010,05,24,11,39,861.00
2010,05,24,11,40,861.00
2010,05,24,11,41,861.00
2010,05,24,11,42,861.00
2010,05,24,11,43,861.00
2010,05,24,11,44,861.00
2010,05,24,11,45,861.00
2010,05,24,11,46,861.00
2010,05,24,11,47,861.00
2010,05,24,11,48,865.00
2010,05,24,11,49,865.00
2010,05,24,11,50,865.00
2010,05,24,11,51,865.00
2010,05,24,11,52,865.00
2010,05,24,11,53,865.00
2010,05,24,11,54,865.00
2010,05,24,11,55,865.00
2010,05,24,11,56,865.00
2010,05,24,11,57,865.00
2010,05,24,11,58,865.00
2010,05,24,11,59,865.00
2010,05,24,12,00,865.00
2010,05,24,12,01,865.00
2010,05,24,12,02,865.00
2010,05,24,12,03,891.00
2010,05,24,12,04,891.00
2010,05,24,12,05,891.00
2010,05,24,12,06,891.00
2010,05,24,12,07,891.00
2010,05,24,12,08,891.00
2010,05,24,12,09,891.00
2010,05,24,12,10,891.00
2010,05,24,12,11,891.00
2010,05,24,12,12,891.00
2010,05,24,12,13,891.00
2010,05,24,12,14,891.00
2010,05,24,12,15,891.00
2010,05,24,12,16,891.00
2010,05,24,12,17,891.00
2010,05,24,12,18,909.00
2010,05,24,12,19,909.00
2010,05,24,12,20,909.00
2010,05,24,12,21,909.00
2010,05,24,12,22,909.00
2010,05,24,12,23,909.00
2010,05,24,12,24,909.00
2010,05,24,12,25,909.00
2010,05,24,12,26,909.00
2010,05,24,12,27,909.00
2010,05,24,12,28,909.00
2010,05,24,12,29,909.00
2010,05,24,12,30,909.00
2010,05,24,12,31,909.00
2010,05,24,12,32,909.00
2010,05,24,12,33,909.00
2010,05,24,12,34,877.00
2010,05,24,12,35,877.00
2010,05,24,12,36,877.00
2010,05,24,12,37,877.00
2010,05,24,12,38,877.00
2010,05,24,12,39,877.00
2010,05,24,12,40,877.00
2010,05,24,12,41,877.00
2010,05,24,12,42,877.00
2010,05,24,12,43,877.00
2010,05,24,12,44,877.00
2010,05,24,12,45,877.00
2010,05,24,12,46,877.00
2010,05,24,12,47,877.00
2010,05,24,12,48,877.00
2010,05,24,12,49,886.00
2010,05,24,12,50,886.00
2010,05,24,12,51,886.00
2010,05,24,12,52,886.00
2010,05,24,12,53,886.00
2010,05,24,12,54,886.00
2010,05,24,12,55,886.00
2010,05,24,12,56,886.00
2010,05,24,12,57,886.00
2010,05,24,12,58,886.00
2010,05,24,12,59,886.00
2010,05,24,13,00,886.00
2010,05,24,13,01,886.00
2010,05,24,13,02,886.00
2010,05,24,13,03,956.00
2010,05,24,13,04,956.00
2010,05,24,13,05,956.00
2010,05,24,13,06,956.00
2010,05,24,13,07,956.00
2010,05,24,13,08,956.00
2010,05,24,13,09,956.00
2010,05,24,13,10,956.00
2010,05,24,13,11,956.00
2010,05,24,13,12,956.00
2010,05,24,13,13,956.00
2010,05,24,13,14,956.00
2010,05,24,13,15,956.00
2010,05,24,13,16,956.00
2010,05,24,13,17,956.00
2010,05,24,13,18,538.00
2010,05,24,13,19,538.00
2010,05,24,13,20,538.00
2010,05,24,13,21,538.00
2010,05,24,13,22,538.00
2010,05,24,13,23,538.00
2010,05,24,13,24,538.00
2010,05,24,13,25,538.00
2010,05,24,13,26,538.00
2010,05,24,13,27,538.00
2010,05,24,13,28,538.00
2010,05,24,13,29,538.00
2010,05,24,13,30,538.00
2010,05,24,13,31,538.00
2010,05,24,13,32,538.00
2010,05,24,13,33,687.00
2010,05,24,13,34,687.00
2010,05,24,13,35,687.00
2010,05,24,13,36,687.00
2010,05,24,13,37,687.00
2010,05,24,13,38,687.00
2010,05,24,13,39,687.00
2010,05,24,13,40,687.00
2010,05,24,13,41,687.00
2010,05,24,13,42,687.00
2010,05,24,13,43,687.00
2010,05,24,13,44,687.00
2010,05,24,13,45,687.00
2010,05,24,13,46,687.00
2010,05,24,13,47,687.00
2010,05,24,13,48,424.00
2010,05,24,13,49,424.00
2010,05,24,13,50,424.00
2010,05,24,13,51,424.00
2010,05,24,13,52,424.00
2010,05,24,13,53,424.00
2010,05,24,13,54,424.00
2010,05,24,13,55,424.00
2010,05,24,13,56,424.00
2010,05,24,13,57,424.00
2010,05,24,13,58,424.00
2010,05,24,13,59,424.00
2010,05,24,14,00,424.00
2010,05,24,14,01,424.00
2010,05,24,14,02,424.00
2010,05,24,14,03,345.00
2010,05,24,14,04,345.00
2010,05,24,14,05,345.00
2010,05,24,14,06,345.00
2010,05,24,14,07,345.00
2010,05,24,14,08,345.00
2010,05,24,14,09,345.00
2010,05,24,14,10,345.00
2010,05,24,14,11,345.00
2010,05,24,14,12,345.00
2010,05,24,14,13,345.00
2010,05,24,14,14,345.00
2010,05,24,14,15,345.00
2010,05,24,14,16,345.00
2010,05,24,14,17,345.00
2010,05,24,14,18,506.00
2010,05,24,14,19,506.00
2010,05,24,14,20,506.00
2010,05,24,14,21,506.00
2010,05,24,14,22,506.00
2010,05,24,14,23,506.00
2010,05,24,14,24,506.00
2010,05,24,14,25,506.00
2010,05,24,14,26,506.00
2010,05,24,14,27,506.00
2010,05,24,14,28,506.00
2010,05,24,14,29,506.00
2010,05,24,14,30,506.00
2010,05,24,14,31,506.00
2010,05,24,14,32,506.00
2010,05,24,14,33,626.00
2010,05,24,14,34,626.00
2010,05,24,14,35,626.00
2010,05,24,14,36,626.00
2010,05,24,14,37,626.00
2010,05,24,14,38,626.00
2010,05,24,14,39,626.00
2010,05,24,14,40,626.00
2010,05,24,14,41,626.00
2010,05,24,14,42,626.00
2010,05,24,14,43,626.00
2010,05,24,14,44,626.00
2010,05,24,14,45,626.00
2010,05,24,14,46,626.00
2010,05,24,14,47,626.00
2010,05,24,14,48,471.00
2010,05,24,14,49,471.00
2010,05,24,14,50,471.00
2010,05,24,14,51,471.00
2010,05,24,14,52,471.00
2010,05,24,14,53,471.00
2010,05,24,14,54,471.00
2010,05,24,14,55,471.00
2010,05,24,14,56,471.00
2010,05,24,14,57,471.00
2010,05,24,14,58,471.00
2010,05,24,14,59,471.00
2010,05,24,15,00,471.00
2010,05,24,15,01,471.00
2010,05,24,15,02,471.00
2010,05,24,15,04,432.00
2010,05,24,15,05,432.00
2010,05,24,15,06,432.00
2010,05,24,15,07,432.00
2010,05,24,15,08,432.00
2010,05,24,15,09,432.00
2010,05,24,15,10,432.00
2010,05,24,15,11,432.00
2010,05,24,15,12,432.00
2010,05,24,15,13,432.00
2010,05,24,15,14,432.00
2010,05,24,15,15,432.00
2010,05,24,15,16,432.00
2010,05,24,15,17,432.00
2010,05,24,15,18,529.00
2010,05,24,15,19,529.00
2010,05,24,15,20,529.00
2010,05,24,15,21,529.00
2010,05,24,15,22,529.00
2010,05,24,15,23,529.00
2010,05,24,15,24,529.00
2010,05,24,15,25,529.00
2010,05,24,15,26,529.00
2010,05,24,15,27,529.00
2010,05,24,15,28,529.00
2010,05,24,15,29,529.00
2010,05,24,15,30,529.00
2010,05,24,15,31,529.00
2010,05,24,15,32,529.00
2010,05,24,15,33,656.00
2010,05,24,15,34,656.00
2010,05,24,15,35,656.00
2010,05,24,15,36,656.00
2010,05,24,15,37,656.00
2010,05,24,15,38,656.00
2010,05,24,15,39,656.00
2010,05,24,15,40,656.00
2010,05,24,15,41,656.00
2010,05,24,15,42,656.00
2010,05,24,15,43,656.00
2010,05,24,15,44,656.00
2010,05,24,15,45,656.00
2010,05,24,15,46,656.00
2010,05,24,15,47,656.00
2010,05,24,15,48,584.00
2010,05,24,15,49,584.00
2010,05,24,15,50,584.00
2010,05,24,15,51,584.00
2010,05,24,15,52,584.00
2010,05,24,15,53,584.00
2010,05,24,15,54,584.00
2010,05,24,15,55,584.00
2010,05,24,15,56,584.00
2010,05,24,15,57,584.00
2010,05,24,15,58,584.00
2010,05,24,15,59,584.00
2010,05,24,16,00,584.00
2010,05,24,16,01,584.00
2010,05,24,16,02,584.00
2010,05,24,16,03,499.00
2010,05,24,16,04,499.00
2010,05,24,16,05,499.00
2010,05,24,16,06,499.00
2010,05,24,16,07,499.00
2010,05,24,16,08,499.00
2010,05,24,16,09,499.00
2010,05,24,16,10,499.00
2010,05,24,16,11,499.00
2010,05,24,16,12,499.00
2010,05,24,16,13,499.00
2010,05,24,16,14,499.00
2010,05,24,16,15,499.00
2010,05,24,16,16,499.00
2010,05,24,16,17,499.00
2010,05,24,16,18,478.00
2010,05,24,16,19,478.00
2010,05,24,16,20,478.00
2010,05,24,16,21,478.00
2010,05,24,16,22,478.00
2010,05,24,16,23,478.00
2010,05,24,16,24,478.00
2010,05,24,16,25,478.00
2010,05,24,16,26,478.00
2010,05,24,16,27,478.00
2010,05,24,16,28,478.00
2010,05,24,16,29,478.00
2010,05,24,16,30,478.00
2010,05,24,16,31,478.00
2010,05,24,16,32,478.00
2010,05,24,16,33,288.00
2010,05,24,16,34,288.00
2010,05,24,16,35,288.00
2010,05,24,16,36,288.00
2010,05,24,16,37,288.00
2010,05,24,16,38,288.00
2010,05,24,16,39,288.00
2010,05,24,16,40,288.00
2010,05,24,16,41,288.00
2010,05,24,16,42,288.00
2010,05,24,16,43,288.00
2010,05,24,16,44,288.00
2010,05,24,16,45,288.00
2010,05,24,16,46,288.00
2010,05,24,16,47,288.00
2010,05,24,16,48,320.00
2010,05,24,16,49,320.00
2010,05,24,16,50,320.00
2010,05,24,16,51,320.00
2010,05,24,16,52,320.00
2010,05,24,16,53,320.00
2010,05,24,16,54,320.00
2010,05,24,16,55,320.00
2010,05,24,16,56,320.00
2010,05,24,16,57,320.00
2010,05,24,16,58,320.00
2010,05,24,16,59,320.00
2010,05,24,17,00,320.00
2010,05,24,17,01,320.00
2010,05,24,17,02,320.00
2010,05,24,17,03,320.00
2010,05,24,17,04,320.00
2010,05,24,17,05,320.00
2010,05,24,17,06,320.00
2010,05,24,17,07,320.00
2010,05,24,17,08,320.00
2010,05,24,17,09,320.00
2010,05,24,17,10,320.00
2010,05,24,17,11,320.00